一网星座-0655星 (ONEWEB-0655 )

导读

ONEWEB-0655是英国OneWeb(一网公司)低轨卫星互联网星座的成员,于2022年12月8日发射入轨。OneWeb由英国政府部分持有,计划建成由数百颗低轨卫星组成的全球星座,旨在为全球偏远地区、基础设施薄弱区域提供高速稳定的互联网接入服务,这颗卫星是OneWeb完成全球网络布局的重要组成部分,助力实现全球无缝网络覆盖的战略目标。

基本信息
目录编号:
54677
目录名称:
ONEWEB-0655
国际标识:
2022-166AM
轨道中心:
EARTH
卫星名称:
一网星座-0655星
卫星全名:
一网星座-0655星 (ONEWEB-0655 )
卫星状态:
在轨 (已飞行1377 天)
发射日期:
2022-12-08 UTC
国别 :
英国 (GB)
星等 :
--
该卫星已列入 空间交会检测服务 Space Conjunction Data Service (SCDS) ,当前飞行风险评估等级: 无高风险
轨道信息
数据来源 国际轨道数据 AOE轨道数据
星历时间 2026-09-15T22:36:25+0800
8小时前
查看轨道信息
2026-09-15T09:00:00+0800
22小时前
查看轨道信息
半长轴 7555.89km 7555.898km
偏心率 0.0002295 0.0002262
轨道倾角 87.927° 87.926°
近地点辐角 79.840° 79.094°
升交点赤经 225.988° 226.100°
平近点角 280.299° 104.666°
近地点 1176.018km 1176.051km
远地点 1179.488km 1179.471km
周期 108.940分钟 108.940分钟
每日圈数 13.218263 13.21824
详细信息
平衡模式:
三轴稳定
覆盖范围:
全球
运营商:
一网卫星公司
运营商所在国:
英国
制造商(研发单位):
一网卫星公司
制造商所在国:
英国
使用方式:
暂无
卫星简介
OneWeb卫星网络由648颗重约125公斤的微型卫星组成,运行在1200公里的轨道上。 每颗卫星都能够提供至少每秒8千兆位的吞吐量,以使用其高吞吐量的Ku频段有效载荷为家庭和移动平台提供互联网接入。该卫星仍在工作。
2D轨道图
3D轨道图
轨道高度分析图
轨道倾角分析图
轨道综合分析图
查看轨道综合分析图
与全量物体交会距离演化趋势 订阅飞行安全评估服务
与全量物体交会风险概率演化趋势 订阅飞行安全评估服务